Regional Weather Roundup
Issued by NWS

Home | Current Version | Previous Version | Text Only | Print | Product List | Glossary Off
Versions: 1 2 3 4 5 6 7 8 9 10 11 12 13 14 15 16 17 18 19 20 21 22 23 24 25 26 27 28 29 30 31 32 33 34 35 36 37 38 39 40 41 42 43 44 45 46 47 48 49 50

000
ASUS43 KMKX 281759
RWRWI

WISCONSIN REGIONAL WEATHER ROUNDUP
NATIONAL WEATHER SERVICE MILWAUKEE/SULLIVAN WI
100 PM CDT SAT MAR 28 2015

NOTE: "FAIR" INDICATES FEW OR NO CLOUDS BELOW 12,000 FEET WITH NO
SIGNIFICANT WEATHER AND/OR OBSTRUCTIONS TO VISIBILITY.

WIZ001-002-006>008-014>016-023>028-281900-
NORTHWEST WISCONSIN

CITY           SKY/WX    TMP DP  RH WIND       PRES   REMARKS
SUPERIOR ARPT  SUNNY     40  10  28 SW10      30.19F WCI  34
ASHLAND        SUNNY     40   5  23 S10G16    30.18F WCI  33
6HR MIN TEMP:   8; 6HR MAX TEMP:  42;

HAYWARD        SUNNY     37   9  31 S13       30.19F WCI  29
6HR MIN TEMP:  11; 6HR MAX TEMP:  37;

SIREN          SUNNY     39   7  26 S13       30.21F WCI  31
CUMBERLAND     SUNNY     36  10  35 S12       30.21F WCI  27
RICE LAKE      SUNNY     38   9  30 S10       30.23F WCI  30
6HR MIN TEMP:  15; 6HR MAX TEMP:  38;

CHETEK         SUNNY     37  11  33 S12       30.23F WCI  30
LADYSMITH      SUNNY     38   9  30 SW9G17    30.23F WCI  32
6HR MIN TEMP:  15; 6HR MAX TEMP:  38;

EAU CLAIRE     SUNNY     39  10  30 SW10      30.23F WCI  32
6HR MIN TEMP:  14; 6HR MAX TEMP:  39;

MENOMONIE      SUNNY     38   9  30 S12       30.25F WCI  31
NEW RICHMOND   SUNNY     38   6  26 S12       30.23F WCI  30
OSCEOLA        SUNNY     39   8  28 S8        30.25F WCI  33
$$

WIZ003>005-009-010-017-018-281900-
NORTH CENTRAL WISCONSIN

CITY           SKY/WX    TMP DP  RH WIND       PRES   REMARKS
MANITOWISH WTR SUNNY     35   5  29 SW8       30.18F WCI  28
ARBOR VITAE    SUNNY     36   7  29 W8        30.19F WCI  30
WOODRUFF       SUNNY     36   7  29 W8        30.19F WCI  30
RHINELANDER    SUNNY     36   8  31 SW12      30.20F WCI  28
6HR MIN TEMP:   4; 6HR MAX TEMP:  36;

EAGLE RIVER    SUNNY     33   1  26 SW8       30.18F WCI  26
LAND O LAKES   SUNNY     35  -1  22 CALM      30.18F
PHILLIPS       SUNNY     36   9  33 W8        30.19F WCI  29
6HR MIN TEMP:   9; 6HR MAX TEMP:  36;

TOMAHAWK       SUNNY     35   6  29 CALM      30.21F
MEDFORD        SUNNY     33  12  42 S9        30.22F WCI  25
MERRILL        SUNNY     35  10  35 SW10      30.23F WCI  27
$$

WIZ029-030-035-036-043>047-281900-
CENTRAL WISCONSIN

CITY           SKY/WX    TMP DP  RH WIND       PRES   REMARKS
WAUSAU         SUNNY     35   9  33 SW7       30.22F WCI  29
6HR MIN TEMP:  13; 6HR MAX TEMP:  36;

MOSINEE        SUNNY     34  12  40 S9        30.26S WCI  26
MARSHFIELD     SUNNY     38   8  29 VRB7      30.24F WCI  33
6HR MIN TEMP:  16; 6HR MAX TEMP:  38;

STEVENS POINT  SUNNY     33   7  33 SE5       30.27F WCI  28
WAUPACA        SUNNY     39   7  26 CALM      30.29F
WAUTOMA        NOT AVBL
WISC RAPIDS    SUNNY     38   5  25 SW12      30.28F WCI  30
6HR MIN TEMP:  10; 6HR MAX TEMP:  38;

CAMP DOUGLAS   NOT AVBL
$$

WIZ011>013-019>022-031-037>040-048>050-281900-
NORTHEAST WISCONSIN

CITY           SKY/WX    TMP DP  RH WIND       PRES   REMARKS
ANTIGO         SUNNY     32  13  44 SW9       30.22F WCI  24
SHAWANO        SUNNY     36  14  40 S3        30.29F
OCONTO         SUNNY     32  16  50 SE9       30.29F WCI  24
STURGEON BAY   SUNNY     30  14  51 CALM      30.31F
6HR MIN TEMP:  12; 6HR MAX TEMP:  30;

GREEN BAY      SUNNY     34  21  59 S6        30.30F WCI  29
6HR MIN TEMP:  17; 6HR MAX TEMP:  34;

MANITOWOC      NOT AVBL
APPLETON       SUNNY     34  12  40 SW6       30.29F WCI  29
CLINTONVILLE   SUNNY     34  10  37 SW6       30.28F WCI  29
OSHKOSH        SUNNY     35  12  38 VRB7      30.29F WCI  29
6HR MIN TEMP:  15; 6HR MAX TEMP:  35;

$$

WIZ032>034-041-042-053>061-281900-
SOUTHWEST WISCONSIN

CITY           SKY/WX    TMP DP  RH WIND       PRES   REMARKS
LA CROSSE      SUNNY     39  11  31 S8        30.28F WCI  33
6HR MIN TEMP:  20; 6HR MAX TEMP:  40;

SPARTA         SUNNY     38   6  27 S8        30.29F WCI  32
VIROQUA        SUNNY     34  13  41 SW7       30.27S WCI  27
BOSCOBEL       SUNNY     36  14  40 SW8       30.32S WCI  30
6HR MIN TEMP:  13; 6HR MAX TEMP:  36;

PRAIRIE DU CHI SUNNY     35   8  31 S3        30.31S
PLATTEVILLE    SUNNY     35  14  42 S8        30.30S WCI  28
$$

WIZ056-057-062-063-064-067-068-281900-
SOUTH CENTRAL WISCONSIN

CITY           SKY/WX    TMP DP  RH WIND       PRES   REMARKS
REEDSBURG      SUNNY     35  11  37 SW6       30.29F WCI  30
BARABOO/DELLS  SUNNY     35   6  29 S6        30.29S WCI  30
LONE ROCK      NOT AVBL
MINERAL POINT  SUNNY     34  14  44 S5        30.30S WCI  30
MADISON        MOSUNNY   35  11  36 S8        30.30F WCI  29
6HR MIN TEMP:  16; 6HR MAX TEMP:  36;

MIDDLETON      SUNNY     36   7  30 W5        30.31F WCI  32
WATERTOWN      SUNNY     34  11  38 SW5       30.31S WCI  30
MONROE         SUNNY     34  16  47 SW3       30.30F
JANESVILLE     SUNNY     36   9  32 CALM      30.32F
$$

WIZ051-052-058>065-066-070>072-281900-
SOUTHEAST WISCONSIN

CITY           SKY/WX    TMP DP  RH WIND       PRES   REMARKS
MILWAUKEE      MOSUNNY   32  16  51 E9        30.33F WCI  24
6HR MIN TEMP:  18; 6HR MAX TEMP:  33;

WAUKESHA       MOSUNNY   32   9  37 SE5       30.32F WCI  27
MILWAUKEE/TIMM NOT AVBL
RACINE         SUNNY     31  16  54 SE9       30.35F WCI  23
6HR MIN TEMP:  17; 6HR MAX TEMP:  32;

BURLINGTON     SUNNY     32  12  43 NE3       30.32F
KENOSHA        SUNNY     33  17  51 E13       30.33F WCI  24
6HR MIN TEMP:  16; 6HR MAX TEMP:  34;

FOND DU LAC    SUNNY     36  11  35 VRB7      30.30F WCI  30
6HR MIN TEMP:  12; 6HR MAX TEMP:  36; 6HR PCP: TRACE;

SHEBOYGAN      SUNNY     33  13  43 VRB3      30.31F
6HR MIN TEMP:  16; 6HR MAX TEMP:  34;

WEST BEND      SUNNY     32   5  32 W3        30.30F
JUNEAU         SUNNY     32   9  38 CALM      30.32S
$$

LSZ147-162-281900-
LAKE SUPERIOR

STATION/POSITION TIME  TEMP    WIND        PRES    WAVE
                       AIR SEA DIR/SP/G            HT/PER
                 (UTC) (F)     (DEG/KT/KT) (MB)    (FT/S)
DEVILS ISLAND    1700   29     240/  4/  5 1024.6F
PORT WING        1700   29     340/  5/  6 1023.4
SAXON HARBOR     1700   30        CALM     1023.4
$$

LMZ867-665-643>646-281900-
LAKE MICHIGAN

STATION/POSITION TIME  TEMP    WIND        PRES    WAVE
                       AIR SEA DIR/SP/G            HT/PER
                 (UTC) (F)     (DEG/KT/KT) (MB)    (FT/S)
NORTHPORT PIER   1724   26      90/  5/  7 1026.1F
SISTER BAY       1617   31     320/  7/  7   N/A
KEWAUNEE LAKESHO 1700   28     150/  6/ 10 1025.9F
SHEBOYGAN LAKESH 1700   27     140/  7/  8 1028.6F
PORT WASHINGTON  1700   29     130/  6/  8 1028.4
MILWAUKEE LAKESH 1700   28      90/  5/  6   N/A
KENOSHA   LAKESH 1700   27      80/  5/  8 1027.8S
$$

TC  - TEMPERATURE IN CELSIUS
VSB - VISIBILITY IN STATUTE MILES
WCI - WIND CHILL INDEX
HX  - HEAT INDEX



USA.gov is the U.S. government's official web portal to all federal, state and local government web resources and services.